Stanton, MN

4:25 AM CDT on August 22, 2017 (GMT -0500)
Stanton

Weather History for KSYN - May, 2013

Change the Weather History Date:

Friday, May 10, 2013

  Actual Average (KLVN) Record (KLVN)
Temperature  
Mean Temperature 50 °F -  
Max Temperature 64 °F 70 °F 91 °F (1987)
Min Temperature 37 °F 46 °F 27 °F (1981)
Degree Days  
Heating Degree Days 14    
Moisture  
Dew Point 32 °F    
Average Humidity 51    
Maximum Humidity 78    
Minimum Humidity 20    
Precipitation  
Precipitation 0.00 in - - ()
Sea Level Pressure  
Sea Level Pressure 30.01 in    
Wind  
Wind Speed 9 mph (North)    
Max Wind Speed 14 mph    
Max Gust Speed 18 mph    
Visibility 10 miles    
Events      
Averages and records for this station are not official NWS values.
T = Trace of Precipitation, MM = Missing Value Source: NWS Daily Summary

Daily Weather History Graph

Daily Weather History Graph

Search for Another Location

Airport or City:

Trip Planner

Search our weather history database for the weather conditions in past years. The results will help you decide how hot, cold, wet, or windy it might be!

Date:

Astronomy

May. 10, 2013 Rise Set
Actual Time 5:50 AM CDT 8:27 PM CDT
Civil Twilight 5:16 AM CDT 9:00 PM CDT
Nautical Twilight 4:35 AM CDT 9:42 PM CDT
Astronomical Twilight 3:47 AM CDT 10:30 PM CDT
Moon 6:14 AM CDT (5/10) 9:18 PM CDT (5/10)
Length of Visible Light 15h 43m
Length of Day
14h 37m
New Moon, 0% of the Moon is Illuminated
May 10
New Moon
May 17
First Quarter
May 24
Full
May 31
Last Quarter
Jun 8
New

Hourly Weather History & Observations

Time (CDT) Temp. Windchill Dew Point Humidity Pressure Visibility Wind Dir Wind Speed Gust Speed Precip Events Conditions
12:14 AM 44.8 °F 39.0 °F 35.8 °F 71% 30.06 in 10.0 mi NNE 11.5 mph - N/A   Overcast
1:14 AM 43.7 °F 36.9 °F 34.5 °F 70% 30.07 in 10.0 mi NNE 13.8 mph - N/A   Overcast
1:34 AM 43.0 °F 36.8 °F 34.0 °F 71% 30.07 in 10.0 mi North 11.5 mph - N/A   Overcast
1:53 AM 42.3 °F 35.5 °F 33.8 °F 72% 30.07 in 10.0 mi NNE 12.7 mph - N/A   Overcast
2:13 AM 41.5 °F 35.0 °F 33.4 °F 73% 30.07 in 10.0 mi NNE 11.5 mph - N/A   Scattered Clouds
2:34 AM 41.2 °F 33.7 °F 32.7 °F 72% 30.07 in 10.0 mi NNE 13.8 mph - N/A   Clear
2:53 AM 41.0 °F 33.5 °F 32.4 °F 71% 30.06 in 10.0 mi NNE 13.8 mph - N/A   Clear
3:14 AM 40.6 °F 33.0 °F 32.0 °F 71% 30.06 in 10.0 mi NNE 13.8 mph - N/A   Clear
3:54 AM 40.1 °F 33.6 °F 32.0 °F 73% 30.07 in 10.0 mi NNE 10.4 mph - N/A   Clear
4:13 AM 39.7 °F 32.7 °F 32.0 °F 74% 30.06 in 10.0 mi NNE 11.5 mph - N/A   Clear
4:34 AM 39.4 °F 32.7 °F 31.8 °F 74% 30.07 in 10.0 mi NNE 10.4 mph - N/A   Clear
4:53 AM 39.2 °F 33.0 °F 31.5 °F 74% 30.07 in 10.0 mi NNE 9.2 mph - N/A   Clear
5:13 AM 38.3 °F 32.5 °F 31.5 °F 76% 30.07 in 10.0 mi NNE 8.1 mph - N/A   Clear
5:33 AM 37.9 °F 32.1 °F 31.1 °F 76% 30.07 in 10.0 mi North 8.1 mph - N/A   Clear
5:54 AM 37.4 °F 32.1 °F 31.1 °F 78% 30.07 in 10.0 mi NNE 6.9 mph - N/A   Clear
6:13 AM 37.6 °F 32.3 °F 31.1 °F 77% 30.08 in 10.0 mi North 6.9 mph - N/A   Clear
6:33 AM 38.3 °F 32.5 °F 31.1 °F 75% 30.08 in 10.0 mi North 8.1 mph - N/A   Clear
7:13 AM 40.1 °F 33.2 °F 31.1 °F 70% 30.08 in 10.0 mi NNE 11.5 mph - N/A   Clear
7:33 AM 40.8 °F 33.3 °F 30.6 °F 67% 30.07 in 10.0 mi NE 13.8 mph - N/A   Clear
8:13 AM 42.3 °F 35.5 °F 30.9 °F 64% 30.08 in 10.0 mi NNE 12.7 mph 18.4 mph N/A   Clear
8:33 AM 43.0 °F 36.8 °F 31.5 °F 64% 30.08 in 10.0 mi NNE 11.5 mph - N/A   Clear
8:54 AM 43.9 °F 37.5 °F 31.8 °F 63% 30.08 in 10.0 mi NNE 12.7 mph - N/A   Clear
9:13 AM 44.6 °F 39.7 °F 32.2 °F 62% 30.08 in 10.0 mi NNE 9.2 mph - N/A   Clear
9:33 AM 45.0 °F 40.6 °F 32.0 °F 60% 30.08 in 10.0 mi NNE 8.1 mph - N/A   Clear
9:54 AM 45.7 °F 40.2 °F 32.2 °F 59% 30.07 in 10.0 mi NNE 11.5 mph - N/A   Clear
10:13 AM 46.9 °F - 33.4 °F 59% 30.07 in 10.0 mi NNE 6.9 mph - N/A   Clear
10:33 AM 47.7 °F - 34.7 °F 61% 30.07 in 10.0 mi NNE 8.1 mph - N/A   Clear
10:54 AM 49.1 °F - 35.1 °F 58% 30.07 in 10.0 mi NE 3.5 mph - N/A   Clear
11:13 AM 50.0 °F - 35.8 °F 58% 30.07 in 10.0 mi NNE 5.8 mph - N/A   Clear
11:33 AM 51.3 °F - 36.3 °F 57% 30.07 in 10.0 mi North 10.4 mph - N/A   Clear
12:14 PM 53.8 °F - 36.9 °F 53% 30.06 in 10.0 mi North 9.2 mph - N/A   Clear
12:33 PM 55.2 °F - 36.0 °F 48% 30.05 in 10.0 mi North 5.8 mph - N/A   Clear
12:54 PM 56.3 °F - 35.6 °F 46% 30.05 in 10.0 mi North 9.2 mph - N/A   Clear
1:14 PM 57.4 °F - 33.8 °F 41% 30.04 in 10.0 mi NNE 9.2 mph - N/A   Clear
1:34 PM 59.0 °F - 31.6 °F 36% 30.03 in 10.0 mi NNE 6.9 mph - N/A   Clear
1:53 PM 59.9 °F - 29.1 °F 31% 30.03 in 10.0 mi NNE 8.1 mph - N/A   Clear
2:14 PM 61.0 °F - 27.7 °F 28% 30.03 in 10.0 mi NE 5.8 mph - N/A   Clear
2:34 PM 61.7 °F - 28.9 °F 29% 30.02 in 10.0 mi NNW 3.5 mph - N/A   Clear
2:53 PM 62.1 °F - 27.1 °F 27% 30.01 in 10.0 mi NNE 3.5 mph - N/A   Clear
3:14 PM 63.1 °F - 26.1 °F 25% 30.00 in 10.0 mi NE 5.8 mph - N/A   Clear
3:33 PM 62.8 °F - 24.1 °F 23% 30.00 in 10.0 mi North 4.6 mph - N/A   Clear
3:53 PM 64.2 °F - 26.8 °F 24% 29.99 in 10.0 mi NW 3.5 mph - N/A   Clear
4:14 PM 63.7 °F - 27.5 °F 25% 29.98 in 10.0 mi Calm Calm - N/A   Clear
4:33 PM 64.4 °F - 27.5 °F 25% 29.97 in 10.0 mi WNW 6.9 mph - N/A   Clear
4:53 PM 64.4 °F - 22.1 °F 20% 29.96 in 10.0 mi Calm Calm - N/A   Clear
5:14 PM 64.4 °F - 25.3 °F 23% 29.95 in 10.0 mi WNW 5.8 mph - N/A   Clear
5:33 PM 64.8 °F - 25.5 °F 23% 29.95 in 10.0 mi West 5.8 mph - N/A   Clear
5:53 PM 64.8 °F - 23.9 °F 21% 29.95 in 10.0 mi WSW 4.6 mph - N/A   Clear
6:14 PM 64.4 °F - 23.5 °F 21% 29.94 in 10.0 mi West 5.8 mph - N/A   Clear
6:33 PM 64.8 °F - 24.3 °F 22% 29.94 in 10.0 mi West 9.2 mph - N/A   Clear
6:53 PM 63.5 °F - 27.5 °F 26% 29.94 in 10.0 mi WNW 6.9 mph - N/A   Clear
7:14 PM 63.7 °F - 27.9 °F 26% 29.93 in 10.0 mi WNW 5.8 mph - N/A   Clear
7:33 PM 63.7 °F - 25.3 °F 23% 29.93 in 10.0 mi West 4.6 mph - N/A   Clear
7:53 PM 62.6 °F - 25.2 °F 24% 29.92 in 10.0 mi Calm Calm - N/A   Clear
8:14 PM 61.9 °F - 26.6 °F 26% 29.92 in 10.0 mi Calm Calm - N/A   Clear
8:33 PM 58.6 °F - 39.6 °F 49% 29.92 in 10.0 mi Calm Calm - N/A   Clear
8:53 PM 57.2 °F - 32.9 °F 40% 29.91 in 10.0 mi South 3.5 mph - N/A   Clear
9:14 PM 54.3 °F - 39.2 °F 57% 29.91 in 10.0 mi South 3.5 mph - N/A   Clear
9:33 PM 52.9 °F - 40.3 °F 62% 29.91 in 10.0 mi SSW 3.5 mph - N/A   Clear
9:53 PM 52.7 °F - 39.0 °F 60% 29.92 in 10.0 mi SSW 4.6 mph - N/A   Clear
10:14 PM 53.6 °F - 36.9 °F 53% 29.91 in 10.0 mi South 4.6 mph - N/A   Clear
10:33 PM 52.2 °F - 37.0 °F 56% 29.90 in 10.0 mi South 5.8 mph - N/A   Clear
10:54 PM 49.1 °F - 40.8 °F 73% 29.91 in 10.0 mi Calm Calm - N/A   Mostly Cloudy
11:14 PM 51.4 °F - 39.7 °F 64% 29.90 in 10.0 mi South 4.6 mph - N/A   Overcast
11:33 PM 53.8 °F - 36.9 °F 53% 29.90 in 10.0 mi South 4.6 mph - N/A   Overcast
11:54 PM 52.7 °F - 40.1 °F 62% 29.90 in 10.0 mi SSW 4.6 mph - N/A   Overcast